Theta_e
352 352 351 351 352 353 353 353 351 351 354 346 347 350 349 353 353 353 351 350 352 348 349 350 346 344 345 342 340 347 348 344 345 341 343 350 350 346 344 342 340 337 338 337 338 338 340 341 340 341 343 344 344 344 344 344 344 344 344 345 346 346 346 345 345 345 345 345 347 347 347 346 346 346 345 344 344 343 342 341 339 338 336 334 333 332 332 331 330 329 330 331 332 333 335 336 336
353 352 352 352 352 353 355 354 351 348 347 344 348 350 350 354 354 353 350 350 351 347 349 347 340 345 349 347 344 346 350 350 350 349 350 348 347 347 343 343 343 339 336 337 339 337 338 340 339 340 343 344 345 345 345 345 345 346 344 344 344 344 345 345 344 344 345 344 345 345 344 344 344 344 342 341 340 340 340 339 339 338 337 337 338 338 339 339 339 339 340 340 341 341 341 341 341
353 353 352 352 353 353 355 354 350 342 339 341 346 350 351 355 355 351 349 349 349 347 350 344 338 347 350 349 348 348 352 354 353 349 348 346 347 348 345 345 343 338 335 338 342 342 338 337 339 340 343 345 345 346 346 346 346 346 346 346 345 345 344 344 344 344 344 344 344 344 343 343 342 342 341 339 338 338 339 340 340 340 341 342 342 342 343 343 343 343 344 344 344 344 344 344 344
353 353 353 353 354 353 354 353 350 340 337 339 343 350 353 353 353 349 349 348 347 348 348 342 340 348 351 353 352 351 353 355 353 347 346 348 349 347 346 342 337 337 338 340 343 345 340 335 338 340 343 345 346 346 346 346 346 346 346 346 347 346 346 346 345 345 345 344 343 344 343 342 341 341 341 339 339 340 341 341 342 342 342 342 342 343 343 343 343 343 343 344 344 344 344 343 343
352 353 352 354 355 353 354 351 350 344 341 342 343 350 352 350 350 348 349 347 347 348 346 344 346 349 352 356 354 353 354 355 354 347 348 351 349 345 339 334 335 340 340 342 344 344 338 333 337 339 343 345 345 345 345 346 346 346 346 345 346 346 347 347 346 345 345 344 344 344 343 342 341 341 340 340 340 341 341 341 341 340 340 339 339 339 338 338 338 337 337 338 338 339 339 339 340
353 354 352 354 355 353 352 347 345 346 348 349 348 350 350 349 350 348 347 346 345 348 348 348 351 352 353 355 355 356 355 354 353 350 350 350 349 343 334 335 343 343 340 340 342 340 333 329 335 337 341 344 345 345 345 345 344 345 345 344 344 345 346 346 345 344 343 342 341 340 338 338 337 336 335 335 334 333 333 333 332 332 332 331 331 330 330 330 330 330 330 331 332 333 333 332 332
354 354 354 355 355 353 350 344 343 346 351 352 351 351 350 351 351 348 346 345 345 350 351 351 353 353 354 355 356 355 353 353 353 352 350 349 347 341 338 344 346 343 338 335 338 340 331 326 334 337 340 343 344 344 345 344 344 344 343 343 342 343 343 341 340 339 338 335 332 331 329 329 329 328 327 327 326 325 325 325 325 325 324 325 326 326 326 326 327 328 328 327 328 329 329 328 327
354 354 355 355 352 352 348 345 347 349 351 351 352 353 352 353 351 347 345 343 346 351 351 352 353 353 355 355 356 355 352 352 352 352 349 348 346 342 345 347 346 343 341 336 340 341 329 325 332 337 339 339 340 342 342 342 342 341 340 340 337 336 335 332 331 330 329 327 326 325 325 325 324 324 324 324 324 324 324 324 324 324 325 327 328 328 328 329 330 331 330 330 331 332 331 331 331
355 355 354 353 350 349 347 346 349 351 352 352 353 354 354 353 351 347 345 344 346 351 352 353 354 353 355 355 355 355 353 348 346 349 348 349 347 345 347 348 346 345 343 341 343 341 330 327 331 335 336 336 339 340 340 340 339 337 334 333 330 328 327 326 325 325 325 324 324 324 324 324 324 324 324 325 325 326 325 325 325 325 327 329 331 332 332 333 334 335 335 335 335 335 335 334 335
358 355 353 352 348 344 343 345 348 351 353 353 355 355 354 353 351 347 346 349 349 352 354 354 353 353 355 355 354 355 354 347 345 349 349 347 343 344 349 347 343 341 341 339 341 342 334 331 332 336 337 336 337 337 337 337 336 332 329 327 326 325 324 324 324 324 324 324 324 324 325 325 324 324 327 331 330 328 326 326 327 328 331 334 335 335 336 336 337 338 338 338 339 340 340 339 339
357 352 353 349 343 340 340 344 348 351 352 353 355 356 355 354 353 350 351 353 352 354 355 353 354 354 356 355 354 354 352 349 348 348 346 339 332 339 345 339 333 332 332 335 342 344 337 335 336 335 336 333 334 335 334 332 330 327 326 325 325 325 324 324 325 324 324 324 325 325 325 325 324 325 329 332 329 327 327 327 329 333 336 337 337 337 338 339 339 339 340 340 341 342 342 342 342
355 350 352 346 341 341 343 346 348 351 352 351 353 355 355 355 355 355 356 355 354 356 355 353 354 354 355 355 354 353 352 351 349 345 341 337 334 333 332 328 326 327 326 330 342 344 337 337 338 335 333 331 333 333 329 327 326 325 325 326 325 325 324 324 325 324 325 325 325 324 325 325 325 326 328 328 329 332 334 332 331 335 338 337 337 338 339 338 338 339 339 339 340 340 340 339 340
354 350 349 345 344 346 346 347 350 351 351 350 351 353 354 355 356 356 357 357 355 357 356 353 353 354 355 355 354 353 353 352 347 343 343 343 338 328 327 328 324 326 324 328 340 344 340 339 341 339 333 331 332 329 327 326 325 325 325 325 325 325 325 326 325 326 326 326 326 325 325 324 325 327 330 332 336 338 338 336 334 335 337 337 339 339 337 337 338 338 339 339 339 339 339 340 340
353 352 349 346 347 348 347 346 349 349 348 351 352 353 354 353 353 354 356 356 355 357 356 353 353 353 355 353 353 353 352 350 344 344 345 340 333 329 333 331 324 326 324 326 334 338 338 339 343 338 331 333 336 333 330 328 325 325 325 325 325 325 326 326 327 328 328 327 326 326 325 324 328 333 337 339 339 339 339 337 336 337 338 339 339 337 337 337 338 339 341 340 340 340 341 342 342
354 352 350 348 347 346 347 347 349 347 347 351 354 353 353 353 353 353 353 352 353 355 354 353 353 352 352 350 351 354 351 347 346 346 342 332 328 331 334 329 324 325 324 325 328 332 334 338 343 337 334 338 340 341 338 335 331 327 328 326 326 328 329 330 331 331 329 328 329 330 329 331 336 340 341 340 340 341 340 338 337 338 339 339 337 337 338 338 339 340 341 341 340 341 341 342 342
356 354 349 346 345 343 346 350 349 347 347 352 354 354 353 354 354 353 352 352 354 354 352 353 353 352 352 353 354 353 350 348 347 343 333 327 328 328 329 329 328 325 324 325 327 334 333 333 339 335 337 339 338 342 343 343 340 334 332 329 329 331 331 333 333 331 331 333 337 338 338 340 342 342 342 341 341 341 340 339 339 339 339 339 339 340 340 340 340 340 341 341 340 340 340 341 341
357 356 346 341 342 341 345 351 349 346 348 353 354 354 352 352 353 354 353 353 353 352 353 354 354 354 354 356 355 349 349 346 340 336 330 331 333 333 333 334 336 331 325 324 326 334 332 329 334 332 335 338 337 342 342 342 339 335 333 330 331 331 331 333 333 334 337 341 342 342 343 343 343 342 342 341 341 341 341 340 340 341 341 341 340 340 339 338 337 336 337 337 337 337 337 337 336
355 351 340 339 341 341 346 350 349 348 350 352 353 353 351 351 353 354 353 352 353 352 353 354 354 354 352 354 353 346 345 339 334 340 341 343 343 343 342 340 343 340 331 329 329 331 333 333 336 334 333 337 338 338 337 335 330 328 329 329 331 333 337 338 339 341 343 343 343 343 344 343 343 342 342 342 342 342 342 342 342 341 340 338 336 335 333 332 330 330 330 331 332 332 332 333 332
353 344 338 340 343 344 348 348 348 350 350 351 352 352 352 352 353 353 352 352 353 352 353 353 354 355 352 352 354 351 346 339 341 348 349 351 351 349 348 344 344 344 340 340 336 329 332 338 340 340 338 339 338 336 336 338 335 332 333 335 337 340 343 343 343 344 343 343 343 343 344 343 342 341 341 342 342 342 341 340 339 337 335 332 331 330 328 326 324 323 323 323 325 327 331 335 336
351 346 339 341 345 345 349 349 349 351 350 351 352 352 353 352 352 352 352 352 352 351 352 353 353 355 354 353 355 354 348 345 349 352 352 353 353 352 351 347 343 342 343 345 340 331 337 344 343 343 343 340 340 342 343 344 342 341 341 342 344 344 344 344 344 343 343 344 343 343 343 342 341 341 341 341 340 338 336 334 333 332 331 330 330 328 328 326 322 323 323 322 327 331 334 338 339
350 346 340 343 346 344 347 350 349 350 350 350 352 351 352 351 351 351 350 351 351 350 351 352 352 354 355 354 355 354 350 350 352 353 353 352 352 353 352 349 346 342 342 344 342 337 343 349 346 346 346 342 343 346 347 345 344 344 345 344 344 344 344 343 343 343 343 343 343 342 342 342 340 338 336 335 334 332 331 330 331 332 330 330 328 328 331 327 324 331 332 330 334 337 337 338 337
348 345 345 346 346 343 346 350 349 350 350 350 352 350 351 352 351 350 349 348 349 349 351 352 352 354 354 353 355 354 350 352 353 354 354 352 352 353 351 350 347 344 342 345 345 343 346 348 347 348 345 343 345 347 347 346 345 345 345 345 344 344 343 343 343 343 342 342 342 342 340 338 334 332 331 331 332 331 332 332 332 331 330 330 327 327 330 326 327 333 333 331 332 333 334 336 335
347 345 347 347 346 345 348 350 349 350 350 350 351 350 351 351 349 350 349 349 349 349 352 354 353 354 353 352 354 354 352 352 353 354 355 354 353 351 350 351 350 347 346 347 347 346 347 348 348 348 345 344 347 348 347 346 345 345 344 344 344 344 343 342 343 343 342 341 339 337 334 331 330 331 333 333 333 332 331 331 331 330 329 329 327 326 325 325 329 332 330 327 327 327 329 333 334
346 344 346 347 347 347 349 350 350 350 350 351 351 351 351 349 348 349 349 349 350 350 351 354 354 355 354 352 353 353 352 353 354 354 354 355 354 350 350 352 352 351 349 348 347 347 348 348 348 348 346 346 347 347 346 346 344 344 343 344 344 343 342 342 342 341 338 335 333 332 331 333 335 335 334 332 330 329 329 328 329 329 328 327 325 325 324 324 327 329 329 328 328 327 328 332 333
346 344 346 348 348 349 350 350 351 351 352 353 352 351 350 349 350 350 348 348 349 351 351 352 354 355 354 353 353 353 352 353 354 354 354 355 353 350 351 353 353 352 352 351 349 348 348 348 348 347 347 347 346 345 346 346 344 343 343 343 342 342 342 340 338 335 333 333 335 335 337 337 335 333 330 328 328 328 328 327 328 327 326 325 324 325 324 323 327 330 327 326 329 329 329 333 331
346 346 347 349 349 350 351 350 352 352 353 354 353 353 352 351 351 349 347 347 349 352 351 352 355 355 354 354 353 353 352 353 354 354 354 355 352 350 351 352 352 352 353 353 350 349 348 347 348 346 346 346 345 345 344 344 345 344 343 342 342 341 338 335 333 335 337 339 339 338 336 333 330 329 327 328 328 327 327 326 326 325 325 324 323 323 321 321 327 329 323 321 326 327 328 331 329
346 347 348 350 350 351 351 351 351 351 352 353 354 355 354 353 350 348 346 348 350 351 352 353 354 353 353 354 354 352 353 353 353 353 353 353 352 351 351 351 351 351 351 353 352 349 348 348 348 346 345 344 344 345 344 344 345 344 344 343 340 337 333 334 337 339 340 339 336 332 330 329 328 328 328 328 326 325 324 323 323 322 324 323 321 320 318 320 326 327 321 317 320 322 326 330 330
347 347 348 349 350 351 351 351 351 351 352 352 355 356 356 354 350 349 348 349 350 350 352 352 352 353 352 354 354 353 353 352 352 352 352 352 352 352 352 352 351 350 350 352 351 347 347 349 348 346 344 344 344 345 345 345 344 345 344 341 336 335 337 339 341 340 338 334 330 329 329 329 329 328 327 325 322 320 318 318 316 316 320 321 318 317 317 323 328 326 321 318 318 321 326 330 333
346 346 347 348 349 350 350 352 352 351 353 352 354 353 354 356 352 350 350 349 349 349 351 351 352 352 352 354 354 353 353 352 352 351 351 352 352 352 352 353 351 350 351 351 350 346 345 347 347 346 344 345 344 344 345 344 344 344 342 339 337 339 341 342 341 338 334 330 330 330 330 329 327 326 324 320 317 314 314 312 311 313 316 317 317 318 323 327 327 325 320 319 322 324 328 332 335
345 344 345 347 346 348 351 352 352 351 352 353 352 344 345 356 354 351 352 349 348 350 351 351 352 353 353 354 353 354 353 352 353 352 352 352 352 352 353 354 351 351 352 351 351 348 346 347 346 345 344 344 345 344 344 344 344 343 341 340 340 341 342 341 340 336 332 331 332 331 329 327 325 323 320 316 314 312 312 310 311 314 314 319 324 323 327 329 326 324 319 316 323 328 330 334 336
344 343 343 344 338 342 350 352 351 352 351 353 351 338 338 352 352 351 353 349 348 348 350 350 351 352 352 353 353 353 353 353 353 352 352 352 352 353 353 353 351 351 352 351 350 349 350 350 347 345 345 345 345 345 345 343 343 342 341 341 341 342 342 340 338 335 333 332 332 330 327 325 323 320 317 315 313 311 310 310 314 316 316 325 329 324 326 328 324 325 320 313 322 329 331 334 336
343 337 335 340 335 338 350 352 351 351 350 353 350 339 340 348 348 352 354 351 349 348 348 349 350 352 352 353 353 352 353 352 352 352 352 352 352 353 353 353 351 351 350 349 349 348 351 351 347 346 347 346 347 347 346 343 343 343 342 342 342 342 341 339 336 334 333 333 332 330 326 322 320 318 317 315 313 310 311 315 316 318 322 327 327 323 325 326 322 321 319 313 319 328 331 335 336
342 336 329 333 334 335 343 348 351 350 350 352 349 342 341 346 348 352 354 352 350 348 349 349 349 350 351 352 353 352 352 352 352 352 353 353 353 353 354 353 352 351 349 349 348 349 351 349 346 346 347 348 348 347 345 343 343 343 343 343 343 342 340 338 336 334 333 333 332 330 325 322 320 318 316 314 312 311 314 320 322 323 327 327 323 324 324 322 319 317 316 314 317 326 332 334 336
334 335 331 332 334 333 335 343 350 349 349 350 350 347 345 345 349 352 354 353 351 349 348 349 349 349 349 350 351 352 352 353 353 353 354 354 353 353 354 354 352 351 349 349 350 351 350 347 345 346 346 348 348 345 344 343 344 344 343 343 342 341 340 338 335 333 333 333 332 329 325 322 320 317 315 312 311 311 315 321 324 326 328 325 322 324 323 318 314 313 313 312 315 324 330 332 335
328 329 329 330 333 334 334 339 347 347 347 347 347 349 349 346 348 352 353 352 351 351 348 348 350 349 349 350 350 351 351 352 352 353 353 353 353 353 354 354 353 351 351 350 350 352 350 346 346 346 345 347 346 345 344 343 344 344 343 343 342 341 340 338 335 333 334 333 332 329 325 323 321 317 313 311 309 313 319 322 323 324 325 322 320 322 323 317 311 312 312 311 317 325 327 330 334
331 330 330 329 330 333 335 338 344 345 344 346 345 344 346 344 345 352 353 352 352 352 349 348 348 349 349 349 349 350 351 351 352 352 352 353 353 354 354 354 354 353 353 352 350 351 350 346 346 346 345 346 346 345 345 344 345 344 343 342 341 341 340 337 334 334 334 333 332 329 325 324 321 316 312 310 308 312 320 322 321 323 323 320 318 320 320 314 310 313 314 312 319 326 327 328 331
333 332 332 331 329 330 335 337 342 344 339 339 343 341 343 342 342 350 354 353 353 353 352 350 348 348 349 349 349 349 350 351 351 352 352 353 354 354 355 354 355 354 353 353 350 349 349 346 346 347 345 345 345 345 345 344 344 343 342 341 341 341 339 336 334 334 334 333 332 329 325 324 320 315 311 309 310 314 320 321 320 322 323 320 318 318 315 311 311 314 316 317 320 325 326 325 328
333 332 330 329 329 330 334 335 337 342 336 334 340 341 341 342 341 348 356 354 352 352 353 353 350 348 349 349 349 349 350 351 351 352 352 354 355 355 355 354 355 355 353 352 349 347 348 348 347 347 346 346 345 345 345 344 344 343 341 341 340 340 337 335 334 334 334 333 332 329 326 324 319 313 309 310 313 317 320 321 321 320 321 320 319 319 316 311 313 314 314 320 323 324 324 322 325
331 331 328 326 328 330 332 333 335 338 335 335 341 340 339 342 342 347 357 355 351 351 351 353 353 349 350 350 349 349 351 352 353 353 353 355 356 355 355 354 355 355 353 352 350 347 346 347 347 347 347 346 345 345 345 344 344 343 342 341 340 338 336 335 335 335 334 333 331 329 326 323 318 312 311 315 317 317 319 322 322 318 315 316 317 320 320 315 313 313 312 316 324 326 324 320 321
330 330 326 324 329 328 326 331 336 338 335 336 341 340 338 342 341 345 355 355 352 352 350 352 353 351 350 350 350 350 352 353 354 355 354 355 356 356 355 355 355 355 354 352 351 349 346 344 345 346 346 345 344 344 344 344 344 343 341 341 340 338 336 337 336 335 334 333 331 329 326 322 315 311 315 321 320 316 317 319 320 318 311 312 316 317 321 319 315 315 313 314 320 325 326 323 320
329 330 327 326 330 329 327 330 334 336 336 339 341 332 330 335 336 341 353 354 352 353 352 351 353 353 351 351 351 351 353 355 355 355 355 356 357 355 354 355 356 356 353 351 351 350 346 344 344 344 345 345 345 345 345 344 343 342 341 341 340 338 337 337 335 335 334 333 331 328 326 321 313 311 315 320 320 316 314 313 313 313 308 309 315 316 319 318 314 314 315 315 318 322 326 325 322
326 330 330 329 330 330 330 331 330 326 328 338 338 324 322 330 331 339 353 354 352 354 355 354 354 355 352 351 353 352 354 356 355 355 356 359 358 354 353 355 356 355 351 349 352 350 345 344 345 345 345 345 345 345 345 344 342 342 341 340 340 338 336 335 334 334 334 332 331 328 325 318 312 313 313 314 316 313 309 308 307 308 307 308 313 316 319 318 313 310 312 316 318 320 324 325 324
322 327 331 330 330 329 329 329 327 321 323 335 338 324 321 326 329 342 354 352 352 355 356 356 356 357 354 353 354 353 355 356 355 355 357 360 358 355 353 354 356 354 349 351 351 348 345 344 346 346 345 345 345 346 345 344 343 342 341 340 339 337 335 335 335 335 334 332 330 327 323 316 311 313 312 311 311 308 305 305 305 308 310 312 314 316 317 318 314 308 308 313 316 318 322 324 324
322 328 330 328 329 328 329 328 325 324 326 332 336 331 323 321 327 345 353 350 351 354 356 357 357 357 356 353 354 355 356 358 356 356 359 360 358 355 353 354 356 353 350 351 348 345 344 344 346 346 345 345 345 345 344 343 343 342 342 340 338 336 335 335 337 335 333 331 329 326 321 315 311 309 310 311 310 308 306 306 307 310 313 314 315 315 315 315 314 311 310 313 316 318 320 322 323
324 328 327 327 328 328 328 327 325 326 326 323 328 332 325 320 325 342 353 348 344 348 351 355 357 358 357 354 354 355 357 357 356 356 359 360 356 353 352 355 355 353 352 350 346 344 344 344 346 346 345 345 344 344 344 344 343 342 342 340 337 336 335 336 336 334 332 330 328 325 318 315 314 309 308 310 309 309 309 309 309 312 315 315 316 316 315 315 313 312 313 314 317 319 319 320 322
326 326 326 326 327 327 327 327 324 324 324 320 322 327 324 321 323 331 342 339 335 337 338 347 356 358 357 356 354 354 357 357 356 357 359 359 356 352 353 355 354 353 353 349 346 345 344 344 345 345 346 346 344 344 344 343 343 343 342 340 338 337 337 336 335 333 331 329 327 324 317 316 318 315 311 310 309 312 315 315 315 314 315 315 316 317 317 316 316 315 314 313 315 319 318 318 320
326 325 325 325 325 327 327 327 326 321 320 321 322 325 324 321 323 326 332 332 332 333 335 345 355 356 355 356 355 354 357 358 357 357 360 360 357 353 353 355 354 353 353 350 347 346 344 344 344 345 346 345 344 344 344 344 343 343 342 340 339 338 337 336 335 332 331 328 326 322 318 317 318 317 316 315 314 314 317 318 318 317 317 316 316 317 317 317 317 316 315 314 314 316 318 317 317
325 324 324 321 321 324 323 323 325 320 318 321 323 326 324 319 323 328 331 331 331 334 338 345 350 352 355 354 354 354 356 358 358 358 361 361 359 356 354 355 356 354 352 350 349 347 345 344 343 344 344 344 344 344 344 344 343 342 341 340 339 337 336 335 334 331 329 328 324 319 316 316 318 318 318 318 317 316 317 318 318 319 319 318 317 316 316 316 316 316 316 316 316 316 317 317 317
324 323 321 317 315 318 318 318 321 319 318 322 326 326 322 321 325 331 332 332 337 343 345 345 345 348 352 351 352 354 355 358 359 359 361 360 358 357 355 356 357 355 352 351 350 347 345 344 344 344 344 343 344 345 344 344 343 343 341 340 338 337 335 334 332 330 329 327 322 317 315 316 318 318 319 319 319 318 318 318 318 319 319 319 318 317 314 314 316 316 316 317 317 317 317 317 317
323 321 318 315 314 315 316 316 317 318 318 322 328 327 321 321 327 332 333 336 344 348 346 345 345 347 350 350 350 353 356 358 359 361 361 359 358 357 356 356 356 355 354 352 349 347 345 344 344 344 344 343 344 345 345 344 343 341 340 339 338 336 335 333 330 330 328 324 321 318 318 318 318 319 320 319 319 319 318 318 318 319 319 319 319 318 316 314 315 316 316 317 317 317 317 317 317
324 324 322 318 316 315 315 316 315 316 318 320 325 325 319 318 325 331 336 341 345 346 345 346 346 348 349 349 351 354 357 358 359 361 360 358 357 355 356 356 355 355 354 352 349 347 345 344 344 344 344 343 343 345 345 343 342 340 339 339 338 336 333 331 330 329 325 321 320 319 318 319 319 318 318 317 318 319 318 318 319 319 319 319 319 319 318 315 316 316 315 317 317 316 317 317 317
323 326 322 318 319 319 316 316 317 317 316 318 321 321 322 324 328 332 337 342 346 346 346 348 349 350 351 351 354 355 357 359 359 359 358 357 356 355 356 355 355 354 353 351 349 347 346 345 345 345 344 343 343 344 344 343 340 339 339 338 337 335 332 330 330 326 322 318 318 318 318 319 319 317 317 317 318 319 319 319 319 318 318 317 316 317 316 314 315 315 315 317 317 315 316 317 316
323 322 319 320 325 323 317 315 319 318 314 316 318 318 322 326 327 333 342 344 347 348 347 350 351 352 352 353 355 355 358 359 358 358 356 355 355 355 355 355 355 354 352 350 349 347 346 346 347 346 344 344 343 343 344 342 340 339 339 338 336 334 331 330 327 323 320 317 315 317 319 319 319 319 319 319 319 319 320 320 319 318 318 317 315 314 313 314 315 314 313 315 315 315 316 316 316
322 319 321 324 325 324 320 316 316 317 314 316 317 317 318 318 321 332 341 343 347 348 348 351 352 351 352 355 356 356 358 358 357 356 354 354 354 355 355 354 355 354 352 350 349 348 348 347 347 345 344 345 343 343 343 341 339 339 338 338 335 331 329 327 323 321 320 316 314 317 319 319 319 319 319 319 319 319 319 319 319 318 317 316 315 314 312 314 316 316 314 313 313 314 317 316 316
324 322 325 324 319 318 318 316 315 316 315 315 316 317 317 317 320 327 333 340 349 351 350 350 350 352 355 357 357 357 357 356 355 354 353 354 355 355 355 354 354 353 351 350 349 348 347 347 346 345 345 346 344 343 342 340 339 338 337 336 332 329 328 324 321 319 319 316 316 318 319 318 319 318 318 319 320 319 319 319 319 318 318 317 316 315 313 314 315 315 315 314 313 316 317 317 317
324 324 325 324 321 319 319 318 317 315 315 315 316 316 317 321 326 328 334 346 353 352 351 351 351 354 358 358 357 356 354 354 354 354 354 355 354 354 354 353 353 352 349 349 348 347 346 346 347 347 346 345 343 340 340 339 338 337 336 333 330 329 326 321 319 319 318 317 318 318 318 319 320 319 318 319 320 320 320 320 319 318 318 317 317 317 316 314 314 314 314 314 315 317 317 317 317
322 320 321 321 322 322 321 321 318 317 315 315 316 315 316 330 344 344 347 353 354 354 354 354 355 357 357 356 355 353 353 353 353 354 355 354 354 354 354 353 352 351 348 348 346 345 346 347 348 347 346 344 341 339 339 338 337 336 334 332 330 328 322 318 318 319 318 317 318 318 319 319 319 318 317 317 318 319 320 319 319 318 318 317 317 318 318 317 316 316 315 315 316 317 317 318 318
323 322 321 320 321 320 317 317 318 318 316 315 317 315 319 340 354 352 353 355 355 358 357 356 358 357 355 355 353 352 352 352 353 354 354 354 354 353 353 352 350 349 348 347 345 345 347 348 347 346 344 342 340 339 337 336 335 334 332 330 328 324 318 318 319 318 318 318 318 319 320 319 317 316 317 318 318 319 320 319 318 317 317 317 317 318 318 318 318 317 316 315 316 317 317 317 318
Wind_Speed
10 9 9 8 8 6 5 4 2 2 2 3 5 2 4 3 6 9 11 10 5 3 5 7 10 10 4 1 3 2 2 2 6 4 4 6 12 14 12 12 11 11 12 11 8 9 8 8 9 9 9 10 10 10 10 9 9 8 8 8 7 6 5 5 4 5 5 4 3 4 3 4 3 3 3 3 2 2 2 3 3 3 4 5 5 5 6 6 7 8 8 9 10 10 10 11 11
10 9 9 8 8 5 3 3 1 3 3 5 5 3 6 5 6 11 12 7 4 8 8 10 13 7 3 2 2 1 5 8 10 9 9 12 16 12 11 12 12 11 10 10 9 9 9 8 10 10 10 10 10 10 9 9 9 8 8 7 6 6 6 6 4 5 5 3 3 3 3 3 3 2 2 2 1 1 2 2 3 3 4 4 5 5 6 6 7 8 8 9 9 10 10 10 10
9 9 9 9 7 4 2 3 2 3 4 6 4 4 6 6 8 11 9 6 9 14 11 12 11 3 2 3 1 1 5 8 10 11 13 14 13 11 12 12 12 11 9 10 9 9 9 10 10 11 11 10 10 9 9 8 8 7 7 6 6 5 5 6 5 4 3 3 2 1 1 2 2 2 1 1 1 1 2 3 3 4 4 5 5 6 7 7 8 8 9 9 9 10 10 10 10
9 9 10 8 5 4 3 2 1 1 5 6 5 5 6 8 11 10 9 10 14 14 11 12 8 1 1 2 2 2 6 7 8 10 13 10 10 13 13 12 11 10 9 9 10 9 8 11 12 11 12 11 10 9 8 8 7 6 6 5 5 4 5 5 4 3 3 3 2 2 1 2 2 2 2 2 2 2 3 4 4 5 5 6 6 7 8 8 9 9 10 10 10 11 11 11 11
9 9 9 6 3 2 3 1 1 2 5 5 6 6 6 10 12 11 10 12 14 11 10 10 5 2 1 4 3 3 5 6 8 10 11 10 11 15 13 12 11 9 9 9 10 9 9 11 12 12 12 11 10 9 8 7 6 6 5 5 5 4 5 4 4 4 3 3 3 3 3 3 4 4 3 3 3 3 3 4 4 5 5 6 6 7 8 8 9 9 10 10 10 11 11 12 12
7 6 6 4 4 3 2 2 4 5 6 5 6 8 8 11 12 12 12 13 12 9 8 7 3 3 3 4 5 5 3 5 8 9 10 12 13 14 14 13 11 9 9 10 11 9 9 11 12 13 13 11 10 9 8 7 6 6 6 6 5 5 5 4 5 4 4 3 3 3 2 1 2 1 1 2 2 3 3 3 4 5 5 6 7 7 8 9 9 10 10 10 10 10 11 11 11
6 4 5 4 4 4 1 6 6 7 6 5 7 8 9 11 12 12 13 13 10 5 5 4 2 4 4 4 4 7 4 7 9 9 11 14 14 14 14 12 11 10 10 11 10 9 10 12 13 13 14 12 11 11 10 9 7 7 7 7 7 7 6 5 5 4 3 2 2 1 1 1 1 1 1 2 3 4 4 5 6 6 7 8 9 10 11 12 12 13 13 13 12 12 13 12 12
5 4 5 3 2 2 4 8 7 7 6 6 8 8 10 11 12 12 12 12 9 6 6 5 3 3 3 2 3 6 4 8 9 11 14 15 14 14 13 11 11 11 10 11 10 10 12 13 13 13 13 13 11 11 11 10 9 8 8 8 7 7 5 4 4 3 3 2 2 1 1 1 1 1 1 2 3 4 5 6 8 9 10 11 12 13 14 15 15 16 16 16 16 16 16 15 15
4 4 4 2 4 5 6 8 7 8 7 8 8 9 10 11 11 12 11 10 8 6 7 6 4 2 4 4 6 7 5 7 11 13 15 15 13 13 12 10 11 12 11 11 11 10 11 13 13 12 12 11 11 10 10 10 9 8 7 6 6 6 5 4 4 3 3 2 1 1 0 0 1 2 3 4 5 6 8 9 11 11 12 13 14 15 16 16 17 18 18 19 19 19 19 18 18
3 3 2 1 4 6 6 7 7 7 8 8 8 9 10 10 11 13 11 9 7 6 7 6 3 1 5 7 7 6 6 9 13 13 14 15 14 14 12 10 12 13 13 12 12 10 10 12 12 11 11 10 10 9 9 8 7 7 6 5 5 5 5 4 3 3 2 2 2 2 2 3 4 5 5 6 8 9 12 13 13 13 13 14 15 16 17 17 18 19 20 20 21 21 21 21 21
2 2 3 0 4 6 6 6 7 7 7 7 9 10 9 9 9 11 9 7 7 6 7 6 4 5 6 7 7 6 8 9 12 13 14 15 16 16 12 12 13 13 14 13 11 9 9 10 10 10 10 9 9 8 8 7 6 6 6 5 5 4 4 3 2 2 3 3 3 4 5 6 7 8 8 9 11 13 15 16 15 14 14 15 16 16 16 16 16 16 17 17 18 18 18 18 19
1 2 2 3 5 6 6 6 7 7 7 6 8 9 8 8 7 8 8 7 8 6 7 7 3 6 6 7 7 8 10 9 11 13 14 14 14 15 14 14 14 12 13 12 10 9 9 9 8 8 9 9 8 8 7 6 6 6 5 4 4 4 3 3 3 4 4 4 6 7 8 9 10 12 12 14 15 16 17 17 16 15 15 16 16 15 14 13 13 13 13 12 12 12 13 13 14
2 2 1 5 5 6 7 6 7 6 6 5 7 9 7 8 7 7 8 8 9 7 7 6 4 6 5 8 9 10 11 10 11 13 13 13 13 14 14 12 12 12 11 10 9 9 9 8 7 7 8 8 6 6 7 7 6 6 5 5 5 4 4 4 5 5 6 7 8 10 11 12 14 15 16 16 16 16 17 16 15 14 14 15 14 12 12 11 11 11 11 11 11 11 11 11 12
3 3 2 4 4 5 6 5 6 5 6 6 7 8 7 7 5 7 8 8 9 5 5 6 5 6 6 9 9 11 11 11 12 13 13 13 14 14 12 11 11 10 9 8 7 8 9 8 7 6 6 6 3 3 3 4 5 6 6 6 5 4 5 5 6 7 8 9 11 13 14 15 17 17 16 15 15 15 14 14 13 13 12 12 11 10 10 10 11 11 11 12 12 12 12 13 13
4 3 2 4 4 4 3 4 4 3 6 7 8 8 8 5 4 6 7 6 7 5 6 6 4 4 4 5 9 13 13 13 13 13 13 14 15 14 12 11 10 9 8 8 7 7 7 7 7 5 5 5 4 3 3 4 5 6 6 6 6 5 6 7 8 9 11 13 15 16 16 16 17 15 14 14 14 13 12 11 10 10 10 9 9 10 10 10 11 12 12 14 14 14 14 15 15
3 2 1 4 3 4 3 3 3 2 6 8 8 8 7 5 4 6 5 4 6 6 5 5 4 2 3 4 11 17 15 15 14 14 15 16 15 14 13 11 10 9 8 7 7 7 6 6 6 6 6 6 6 6 6 6 6 7 7 6 6 6 7 8 9 11 13 15 15 14 14 14 14 13 13 12 11 9 7 7 7 7 8 8 10 11 10 11 13 13 14 15 16 16 16 17 17
3 4 1 5 4 4 3 4 3 4 8 10 10 10 7 7 6 5 5 4 6 7 5 5 5 4 6 8 13 17 16 16 16 15 16 15 14 12 12 10 10 9 8 8 7 8 8 6 5 6 7 7 7 8 8 8 8 8 8 7 6 7 9 11 12 13 14 14 13 12 12 12 11 10 10 9 7 5 4 4 5 6 8 9 10 11 11 12 13 14 15 16 17 17 18 18 18
5 2 4 5 5 6 3 3 3 5 9 10 11 11 7 7 7 6 6 6 6 7 6 6 7 5 5 9 13 15 16 18 17 16 14 13 12 11 10 10 9 8 8 8 7 7 7 6 5 6 6 7 8 8 9 9 8 7 7 7 8 8 10 12 13 13 13 12 12 11 10 9 7 6 5 4 3 3 4 5 6 8 9 10 11 11 12 12 13 15 16 16 17 17 18 17 15
3 3 6 6 7 7 4 5 4 3 8 10 11 11 6 7 9 7 7 7 7 7 7 8 8 7 5 10 15 15 16 18 17 15 13 12 11 10 10 9 10 9 9 8 7 7 7 6 6 6 6 7 7 6 7 8 7 6 6 7 8 9 10 11 11 11 11 10 8 7 6 3 2 2 3 3 4 5 6 7 8 9 10 10 10 11 12 12 13 15 15 15 15 15 14 13 12
4 4 6 7 6 7 5 5 4 2 7 11 11 10 7 7 8 8 6 6 8 7 7 10 11 10 9 12 17 16 17 18 17 14 13 12 11 10 9 9 9 9 9 8 7 7 7 6 6 7 7 7 7 6 7 7 6 5 6 7 8 9 9 9 8 7 6 4 3 1 2 3 3 4 4 4 5 6 7 8 8 9 10 10 10 12 14 15 15 15 15 14 13 13 12 11 11
4 5 7 7 4 6 5 4 4 3 8 10 10 10 7 8 8 8 7 5 7 8 8 9 10 13 13 15 18 17 18 18 16 14 13 12 12 10 8 8 8 8 9 8 7 6 6 6 7 7 8 8 7 7 6 5 5 6 6 7 8 7 6 6 4 2 1 3 4 5 5 4 4 4 4 4 5 6 7 7 9 10 11 12 12 13 15 17 16 14 14 14 12 11 11 11 11
3 6 7 6 4 6 6 5 5 5 8 9 9 9 7 8 8 8 8 5 2 3 8 9 9 13 15 16 19 18 18 18 16 14 13 13 12 10 8 8 8 9 8 8 7 6 5 6 7 8 8 7 7 7 6 5 5 6 7 5 5 4 2 1 3 4 5 6 6 6 5 4 4 4 4 4 4 5 7 8 10 11 12 14 15 15 16 17 15 12 12 13 12 12 12 12 13
2 6 6 5 6 6 6 5 6 7 8 8 7 6 7 9 7 8 10 6 4 5 6 9 9 12 13 16 19 19 19 18 16 15 14 13 12 10 9 8 7 8 8 8 7 6 5 6 6 7 7 7 6 6 6 4 4 5 4 3 2 1 3 5 7 7 6 5 5 5 4 4 5 5 5 5 6 7 9 10 11 13 13 15 16 16 16 15 13 12 13 13 13 13 13 12 12
2 5 5 5 6 6 6 6 6 6 6 6 5 5 7 8 5 6 10 7 4 5 5 8 9 12 13 14 18 20 19 18 17 16 14 12 12 10 9 8 8 8 8 8 7 6 6 7 7 7 7 7 6 6 6 4 4 3 2 3 4 5 7 8 7 6 5 5 5 4 4 5 5 5 6 7 8 9 11 12 13 15 15 16 17 16 15 14 12 12 13 13 13 13 12 11 11
1 4 5 5 6 6 6 6 7 6 4 4 5 5 6 6 2 3 9 7 8 6 5 7 11 13 13 14 17 18 18 17 16 15 14 12 11 10 9 9 8 9 9 8 7 7 8 7 7 7 7 6 6 5 5 5 4 3 4 6 7 7 7 8 7 6 6 5 5 4 4 4 5 6 6 7 9 10 12 13 13 15 15 16 16 14 14 13 11 11 12 12 12 12 11 11 11
3 4 5 6 7 7 6 7 7 6 5 4 5 4 3 4 2 5 9 8 8 8 6 8 13 14 14 14 15 17 17 17 16 15 14 12 11 10 9 9 9 9 9 8 7 8 9 8 7 7 6 6 5 4 5 5 6 6 7 9 9 8 8 7 7 6 6 5 5 5 5 5 5 6 7 8 10 11 12 13 14 15 15 15 14 12 12 12 10 11 13 13 12 12 12 11 12
6 5 5 5 6 6 6 6 7 6 5 6 5 4 4 4 4 4 8 9 9 9 8 10 13 14 14 14 15 16 16 17 16 14 13 12 12 11 10 10 9 9 9 9 7 9 9 8 7 6 5 6 6 5 6 6 7 8 9 9 10 9 8 7 6 6 5 5 5 5 6 6 6 7 8 8 9 10 11 12 13 13 13 13 12 10 10 10 10 11 13 13 13 13 12 11 11
7 7 7 7 5 6 6 5 7 6 5 8 6 4 5 5 6 5 7 11 11 10 10 12 13 13 14 14 15 15 15 16 15 14 13 13 12 11 11 10 9 9 9 10 9 8 9 7 7 6 5 6 6 5 6 6 8 10 10 10 11 10 8 7 6 6 5 5 5 6 7 7 7 7 7 8 8 8 9 9 10 10 9 9 9 9 9 10 10 12 13 14 13 12 11 10 9
7 7 5 7 6 6 8 7 8 6 5 8 6 4 6 9 9 6 8 11 11 11 12 13 13 12 14 15 15 15 15 15 15 14 14 13 12 11 11 10 10 9 8 10 10 8 8 6 5 5 6 7 6 6 6 7 10 11 11 11 10 9 8 7 6 6 6 6 6 7 7 6 6 7 7 8 8 8 9 9 9 8 7 7 8 9 9 10 10 12 13 13 11 10 9 8 7
6 5 3 5 6 6 9 9 8 8 5 9 6 3 2 8 11 8 10 12 12 13 13 13 13 12 14 15 15 16 16 16 16 15 14 13 12 11 11 10 9 9 8 9 10 8 7 6 5 5 6 7 7 7 7 9 11 12 12 11 10 9 8 7 6 6 6 6 7 7 7 6 7 7 8 8 8 9 9 9 8 6 6 6 7 8 8 9 11 12 13 12 9 9 9 7 6
4 3 3 4 3 3 11 10 10 8 6 9 7 4 2 5 10 12 11 12 13 13 13 14 13 13 14 16 16 16 17 17 16 16 15 14 12 11 11 10 9 9 8 8 8 8 8 7 6 5 6 7 7 7 8 10 12 13 12 10 9 8 7 6 6 6 6 5 6 7 7 7 7 8 8 8 9 8 8 8 6 5 6 6 6 8 8 9 11 11 13 12 9 8 7 6 5
3 3 3 3 2 3 10 12 12 9 6 10 8 4 2 3 9 14 14 13 13 12 13 15 14 14 15 15 16 16 16 17 16 16 15 14 12 11 10 10 9 9 9 7 7 8 8 7 6 6 7 7 7 8 9 10 12 13 11 9 9 8 6 5 5 5 4 5 7 8 7 8 8 9 10 10 10 8 7 6 5 5 6 5 6 9 9 9 11 10 11 12 8 6 7 5 5
4 4 3 1 2 1 5 9 13 11 6 10 11 6 4 2 7 14 16 15 14 12 13 15 15 16 16 16 16 16 16 17 17 17 16 15 12 11 10 10 10 10 10 8 7 8 9 7 6 6 7 8 8 9 10 10 12 12 9 8 7 6 5 4 4 3 3 5 7 7 7 8 9 11 12 12 11 9 7 5 5 5 4 5 6 8 8 9 10 9 10 10 7 5 7 5 4
3 3 3 2 4 4 1 6 11 12 8 9 11 10 9 3 8 13 16 16 14 13 13 15 16 16 17 16 16 16 16 17 18 18 17 15 13 11 10 10 11 11 10 8 7 9 9 7 7 8 8 9 10 11 11 11 11 11 9 7 6 5 4 3 2 2 3 5 7 7 8 9 11 13 13 13 11 9 7 5 4 4 4 5 6 7 8 9 9 9 9 8 6 5 5 5 4
4 4 4 3 4 4 3 2 8 11 10 9 9 11 14 9 8 12 15 16 16 14 13 14 16 17 17 17 17 17 17 17 17 17 17 16 13 12 11 11 11 10 10 9 9 10 10 8 9 10 10 10 11 12 12 12 12 11 9 7 5 4 3 2 2 1 3 5 7 8 9 11 13 14 14 13 11 8 6 5 4 4 4 5 6 7 8 9 9 8 8 7 6 4 5 5 3
8 8 7 6 5 4 4 2 8 8 8 9 10 11 13 10 7 12 15 16 16 14 13 14 15 17 17 17 17 17 18 18 17 16 16 16 15 14 13 12 11 10 9 10 10 12 12 10 10 12 11 12 13 12 12 13 12 11 9 6 6 5 3 2 1 1 3 5 7 9 11 12 14 15 14 13 10 7 4 4 4 4 5 6 7 7 8 9 8 7 7 6 6 4 5 5 2
10 10 8 8 8 5 4 3 7 5 6 7 9 11 14 13 7 10 16 16 15 15 15 16 16 17 18 18 18 18 18 17 16 16 16 16 16 15 15 13 13 10 9 10 11 11 12 10 11 13 12 12 13 13 12 12 11 9 8 7 6 5 3 2 1 1 3 6 8 10 12 14 15 15 14 12 9 6 4 3 4 4 5 7 8 8 9 9 7 6 6 6 7 5 4 4 1
10 10 8 8 7 6 6 3 4 4 6 6 7 10 13 13 9 8 16 16 15 18 18 19 19 18 18 18 19 19 18 16 16 16 16 17 16 16 16 15 14 12 10 11 11 11 12 12 12 13 13 13 13 13 12 11 9 7 8 8 7 5 3 2 1 2 4 6 8 11 12 14 15 15 14 11 8 5 4 4 4 5 5 6 7 8 10 10 8 6 6 6 6 7 5 3 1
10 9 9 8 7 7 6 0 3 4 4 5 6 9 13 13 10 7 15 16 15 18 19 19 20 20 19 20 20 20 19 17 17 17 17 17 17 17 17 15 14 13 11 12 11 12 13 13 13 13 14 15 14 14 13 11 9 8 9 10 8 7 5 4 2 3 5 7 9 11 13 14 14 13 12 9 7 5 4 4 5 6 6 6 7 7 9 10 10 9 8 7 6 6 7 5 1
10 9 9 8 7 8 5 3 4 3 5 6 7 8 11 11 7 5 14 17 15 17 19 19 20 21 22 21 21 21 21 20 19 19 19 19 19 19 18 17 16 14 12 13 13 14 13 13 13 13 14 15 15 15 14 12 12 11 11 10 9 7 6 4 2 3 5 7 9 11 12 13 12 11 10 7 5 6 4 4 4 6 7 7 7 8 8 9 10 10 9 9 8 6 7 8 6
12 12 11 11 10 9 8 4 1 4 6 4 6 8 8 6 5 5 10 15 14 15 17 18 20 21 21 21 21 22 23 23 22 21 21 21 21 21 20 18 16 15 15 16 16 15 14 14 14 14 15 15 15 15 15 15 15 13 12 10 7 6 5 4 2 3 6 8 9 11 12 13 13 11 9 6 5 6 6 6 6 6 8 9 8 9 9 9 10 10 10 9 8 8 7 7 9
12 13 12 14 14 13 13 10 6 7 6 4 3 7 6 6 8 4 7 10 11 13 16 18 20 20 21 22 22 23 23 23 23 22 22 23 23 23 22 20 18 18 19 18 17 15 15 16 17 17 18 17 16 16 16 16 14 12 10 7 7 7 6 4 2 2 5 7 8 10 12 13 12 11 9 6 5 6 7 8 9 9 9 11 10 10 10 9 10 10 10 9 8 8 8 7 7
10 10 9 11 13 13 12 11 7 8 6 2 2 7 7 7 9 3 4 6 9 11 14 17 19 21 23 24 24 24 24 23 23 23 24 24 24 25 25 23 22 21 20 19 18 16 16 18 19 21 21 19 17 17 16 15 13 12 10 6 7 8 7 5 3 3 4 6 8 9 11 12 11 9 8 7 7 8 9 9 10 11 10 11 11 11 10 9 9 11 11 11 10 9 9 8 8
10 6 5 8 10 10 10 10 9 9 8 3 5 5 7 8 6 2 3 5 7 10 13 15 19 21 23 24 24 25 26 26 25 25 25 26 26 27 27 26 25 23 21 20 19 18 18 19 20 21 20 19 19 17 17 15 13 12 12 9 8 8 7 6 3 3 5 6 7 8 9 10 11 8 6 7 8 9 10 10 11 12 11 12 12 11 11 11 11 13 13 12 12 11 10 9 9
11 5 4 7 8 9 9 9 9 9 8 7 6 3 6 9 5 3 6 6 7 7 8 12 18 22 22 24 25 25 26 27 27 27 27 27 27 28 28 28 25 23 22 21 20 19 19 19 18 18 18 19 19 17 17 16 13 12 11 9 8 9 8 6 4 4 4 6 6 7 8 8 8 7 6 7 9 10 11 11 11 12 12 12 12 12 13 13 14 15 14 13 13 12 12 11 10
9 7 6 6 6 7 8 8 9 9 7 10 11 5 5 10 7 4 6 6 7 6 5 7 15 21 22 23 24 25 24 25 27 27 26 27 28 28 28 27 24 23 24 22 20 21 21 20 19 18 17 17 18 17 17 15 13 13 11 8 9 8 7 6 4 4 4 5 5 6 6 5 4 5 6 8 10 11 11 10 11 12 12 13 13 12 12 13 14 15 15 15 14 12 11 11 10
6 5 7 7 8 7 6 6 6 8 9 11 13 8 7 9 9 6 6 7 9 8 5 3 9 17 20 21 23 23 23 25 26 26 25 26 27 28 28 27 24 24 25 22 22 23 22 21 20 19 18 17 17 18 17 15 15 15 12 9 9 8 6 5 3 3 4 4 3 3 3 3 4 4 6 7 8 9 9 9 9 10 11 12 12 11 11 11 11 13 14 15 15 14 12 12 11
7 6 8 8 7 5 6 6 5 8 11 9 7 8 10 10 8 7 9 12 12 8 5 3 3 10 16 18 20 22 23 25 26 26 26 26 27 28 28 26 23 24 26 25 23 23 23 22 21 21 20 19 19 19 17 17 17 16 11 10 10 8 7 5 3 3 4 3 1 2 2 2 5 5 5 6 6 7 8 8 8 8 9 9 10 11 11 11 11 11 12 13 14 14 13 12 12
7 7 7 8 7 6 7 8 6 8 10 6 3 6 9 9 9 11 13 13 8 4 5 5 3 5 13 15 18 21 23 24 26 27 28 28 28 28 28 27 23 23 26 25 24 24 23 23 22 22 21 20 20 19 17 18 17 14 11 11 11 10 9 6 4 4 3 2 2 2 1 3 5 5 5 5 5 6 7 7 7 7 7 8 9 10 12 13 11 11 11 12 13 13 12 12 12
8 8 7 7 7 7 8 7 7 9 7 3 3 4 7 9 9 10 10 7 4 4 5 4 3 3 9 12 16 19 21 23 25 27 28 29 30 29 29 29 24 23 24 24 25 26 25 24 23 22 22 21 20 20 19 19 16 12 11 11 11 11 10 7 5 4 3 3 3 1 2 4 5 5 5 5 6 6 6 7 7 7 7 7 8 8 10 12 11 10 10 11 11 12 11 11 11
8 8 8 8 7 7 8 6 6 8 5 3 5 4 7 7 6 7 5 2 3 4 5 4 2 3 7 10 14 18 20 22 23 25 28 28 30 30 29 26 22 23 24 24 26 26 25 26 24 22 22 21 20 21 21 19 14 12 13 13 13 13 12 8 7 6 4 4 4 4 4 5 5 5 6 7 8 7 6 7 7 6 7 7 7 7 7 10 10 10 10 10 10 10 10 10 10
6 7 8 9 8 7 7 7 7 7 6 3 5 5 7 7 8 7 3 1 2 4 5 5 4 5 8 10 13 16 17 20 21 24 27 27 29 30 29 25 22 23 27 28 27 26 25 25 22 20 21 21 20 20 19 15 13 14 16 15 15 15 12 9 7 5 3 5 5 4 5 6 6 6 7 7 7 6 5 6 6 7 8 8 10 9 8 9 10 9 10 10 9 9 10 10 10
3 6 9 7 6 7 7 7 6 7 9 6 5 7 6 6 7 2 2 1 2 5 5 5 6 6 8 9 11 13 15 18 20 22 25 27 29 29 27 25 22 24 29 30 27 25 24 23 20 20 21 20 19 19 18 15 15 16 16 15 15 14 10 8 6 4 5 5 5 5 7 8 7 6 6 6 7 6 5 6 6 7 8 9 11 12 11 11 11 10 11 10 9 9 10 10 10
3 4 6 5 4 6 6 6 5 6 8 6 4 7 7 5 4 1 4 1 3 6 5 5 6 6 7 8 9 11 13 16 18 21 23 25 27 28 26 25 23 24 28 28 25 22 20 19 19 20 21 19 18 19 18 17 18 18 16 15 14 12 10 8 7 8 8 6 5 8 9 9 8 8 8 7 6 6 6 6 6 7 8 10 12 13 14 13 10 10 11 11 12 12 10 10 11
8 4 1 3 5 6 6 6 6 6 7 5 4 5 6 5 4 4 2 4 5 5 4 3 4 6 6 7 9 11 13 15 16 19 22 24 26 26 26 26 25 23 22 22 21 19 18 19 19 20 19 16 15 17 17 18 19 18 16 16 15 13 11 9 8 9 9 7 8 10 10 9 9 8 9 8 6 4 5 6 6 7 8 9 11 13 14 13 10 9 9 10 12 12 11 11 11
11 8 5 4 4 4 3 5 6 6 6 6 4 3 5 2 3 5 6 6 5 4 3 2 3 5 6 8 11 12 12 14 16 19 21 24 25 23 24 27 25 21 19 19 19 18 19 22 22 21 19 15 14 17 17 18 18 17 17 17 16 13 12 10 10 10 9 9 10 11 11 10 9 8 8 7 6 5 5 5 5 6 6 7 8 9 12 12 11 10 10 10 12 12 11 11 12
10 9 8 7 4 4 3 4 5 5 6 5 4 5 4 3 5 5 5 6 5 5 2 2 4 6 7 9 10 11 12 14 17 20 21 22 22 22 25 27 24 21 20 19 18 18 20 21 21 21 18 15 16 18 18 18 18 17 18 17 14 13 12 11 11 11 11 11 11 11 10 10 10 10 9 8 7 7 6 5 5 6 6 7 8 8 8 9 9 9 9 9 11 11 10 11 12
8 9 9 9 7 5 5 5 5 5 6 5 5 7 3 4 3 4 5 5 5 4 2 4 6 7 8 9 9 9 12 14 17 19 19 20 20 22 24 25 24 22 21 19 18 19 20 20 20 19 17 14 15 18 19 19 19 19 17 15 14 13 12 13 14 13 12 12 12 12 11 11 11 12 11 9 7 7 6 6 6 7 6 6 8 8 7 6 7 7 7 7 8 9 9 10 11
Wind_Direction
151 154 156 158 161 171 179 208 218 170 248 85 88 91 92 87 126 128 132 133 116 127 103 95 128 118 84 150 142 73 56 48 27 29 85 101 133 139 136 134 141 149 159 159 153 161 166 163 154 149 145 141 139 134 132 130 128 125 123 125 130 133 134 138 138 130 126 137 134 133 150 151 161 167 160 174 184 211 235 245 256 266 274 277 281 283 283 284 284 283 283 284 285 285 287 288 287
147 146 150 153 158 170 181 223 239 143 152 95 86 66 105 132 138 136 139 127 104 144 127 117 136 110 65 179 218 174 76 46 40 64 96 120 129 129 134 131 134 143 154 156 150 154 155 162 159 154 151 145 142 137 135 132 128 124 123 124 125 131 136 133 127 119 121 138 140 140 150 145 153 150 154 168 179 219 252 264 270 274 279 283 287 288 288 288 286 286 286 287 287 287 289 288 288
146 143 149 152 161 191 215 217 213 138 120 98 96 95 127 141 135 134 124 93 114 137 129 129 143 110 115 151 198 141 74 57 56 85 109 122 126 127 133 132 137 142 146 147 148 156 156 164 162 157 156 149 146 142 136 134 131 126 123 126 125 124 125 123 118 117 126 148 158 162 161 157 159 152 169 190 212 255 264 267 270 273 279 283 285 286 286 286 285 285 285 285 284 285 286 285 285
145 148 153 156 176 208 224 206 219 107 86 97 114 125 149 134 127 124 115 115 130 138 129 139 148 128 167 97 81 72 72 71 68 96 118 121 129 135 136 138 138 135 140 145 148 156 160 163 165 160 157 153 149 144 141 138 134 132 129 128 126 120 114 116 121 129 144 153 159 169 181 191 196 191 201 218 233 255 265 273 277 279 280 280 280 281 281 282 283 284 283 282 282 282 282 282 282
142 148 156 165 201 224 242 212 56 56 66 83 115 129 134 121 127 125 122 129 139 139 135 152 137 113 162 37 35 49 73 83 88 105 119 121 130 136 136 135 129 131 141 145 148 158 161 160 165 163 158 155 151 149 147 146 143 142 143 141 137 135 130 133 147 151 165 173 177 182 181 193 203 205 207 224 240 253 264 273 275 277 278 277 279 283 285 287 288 289 288 286 285 285 285 285 283
132 135 154 192 243 256 247 116 89 79 55 50 107 121 119 117 128 129 130 134 144 137 140 160 109 135 141 69 52 50 71 90 98 107 117 126 133 136 133 127 124 133 140 144 149 159 161 156 162 165 162 154 150 152 149 150 151 150 148 153 155 156 157 165 177 177 182 178 179 182 165 179 205 228 257 279 290 291 294 295 293 294 295 296 297 302 304 305 303 301 298 294 291 288 288 287 285
137 144 166 203 228 238 115 89 84 83 57 45 98 115 116 120 127 134 137 140 152 152 165 172 135 166 120 104 89 64 80 100 106 117 126 132 135 134 128 124 128 135 139 143 140 143 153 154 159 164 167 162 157 156 153 153 153 159 160 167 177 182 185 181 179 179 176 156 144 132 80 71 43 23 356 333 321 321 320 313 310 308 310 312 310 310 308 307 304 300 299 296 294 291 289 288 286
150 167 199 215 144 158 81 81 75 75 75 73 90 105 118 124 131 141 143 147 163 169 182 183 208 204 99 104 98 82 89 111 126 127 131 134 134 133 127 126 130 133 135 136 131 134 145 152 160 163 169 168 160 156 156 158 159 168 170 171 177 180 177 159 156 157 152 134 121 115 95 79 49 18 328 310 307 309 304 299 299 303 307 310 310 307 303 301 299 297 296 295 294 292 291 289 287
170 192 219 221 97 94 80 86 84 80 91 96 93 105 119 125 135 146 150 155 165 174 178 173 209 220 114 109 89 96 88 114 134 127 130 132 134 133 126 130 133 136 135 137 131 129 141 151 161 162 163 158 151 152 152 157 159 163 161 155 156 156 150 144 150 146 141 139 137 146 142 326 318 310 309 302 300 297 296 294 296 301 306 306 303 300 298 297 297 297 296 295 293 292 291 289 287
200 210 257 194 101 94 90 90 92 91 92 98 105 117 125 126 137 150 159 163 168 178 168 164 192 136 118 115 101 109 102 124 135 127 133 140 145 136 127 138 141 144 144 141 129 128 144 145 152 153 151 148 147 152 150 155 155 151 149 150 152 150 146 149 157 153 166 187 226 257 284 295 295 296 302 302 300 299 300 301 303 307 305 301 298 297 298 297 297 296 295 294 293 292 290 288 286
179 173 275 149 101 88 89 91 97 99 99 107 117 127 134 135 144 155 167 169 170 176 160 170 180 141 126 111 104 115 122 135 137 136 143 146 148 139 136 148 148 151 151 145 129 135 148 141 148 144 142 145 146 150 150 155 152 151 157 160 157 152 155 172 190 206 234 256 274 287 292 293 297 299 302 302 301 303 303 302 303 305 301 298 298 300 301 301 300 299 298 296 295 295 294 292 290
223 133 249 86 80 81 92 97 103 107 117 130 131 139 145 148 157 160 172 168 169 174 167 185 166 147 148 117 111 122 129 135 144 148 144 140 144 144 145 149 150 152 156 153 133 136 147 146 151 146 147 149 148 150 151 156 155 160 167 171 171 177 198 215 237 253 267 281 286 292 294 297 304 306 304 302 303 307 305 300 296 297 300 300 301 302 303 304 306 307 307 304 301 300 297 295 295
321 62 37 72 68 89 103 102 114 127 133 140 136 145 153 162 171 165 170 163 168 171 165 178 154 164 150 110 121 134 135 143 156 151 137 137 145 145 143 146 151 151 160 161 139 137 148 149 154 160 154 145 152 156 159 167 167 176 182 193 201 206 225 236 249 263 275 284 289 293 298 303 306 306 303 303 306 307 303 295 289 292 297 299 301 304 304 307 312 316 317 314 311 307 301 296 294
9 27 31 83 92 96 105 109 133 149 128 136 140 152 167 170 173 166 170 162 165 159 143 156 162 177 145 122 141 145 145 157 160 144 139 146 144 140 140 146 151 152 159 162 149 142 150 152 158 168 147 136 159 166 178 191 186 195 201 211 221 226 242 259 275 286 292 296 300 300 302 303 302 302 302 302 304 301 295 289 286 288 290 293 300 308 306 308 313 316 316 314 312 310 306 302 301
12 21 59 102 116 107 114 113 137 147 118 142 147 158 170 158 163 163 172 163 151 136 132 150 169 179 152 148 155 150 152 158 154 143 146 147 143 142 141 147 148 152 158 158 153 140 149 157 157 159 150 159 179 195 225 237 224 216 217 225 238 249 263 279 288 294 299 301 301 299 299 296 296 297 297 298 298 294 292 290 290 291 292 294 302 307 306 309 313 312 309 308 308 306 305 304 305
357 303 160 100 101 108 138 138 148 140 123 146 149 162 166 144 163 157 156 147 136 145 145 148 148 102 85 110 141 150 152 152 150 148 151 144 143 144 141 148 149 156 162 158 154 147 161 166 158 164 179 185 185 199 209 222 235 235 237 244 253 267 278 283 285 289 294 295 294 294 292 289 290 293 294 296 295 294 293 298 305 307 305 303 305 308 309 310 311 309 307 306 305 304 302 302 304
272 256 132 82 75 80 119 156 141 104 122 145 152 170 168 141 162 158 157 159 144 157 152 134 130 93 83 113 144 156 149 149 151 147 148 143 143 146 146 152 153 162 167 164 164 158 166 167 160 175 192 192 193 210 213 218 232 235 244 255 259 271 281 283 285 288 289 288 289 288 286 287 290 292 296 299 302 308 310 314 315 313 308 303 306 310 311 309 308 307 305 304 303 301 299 298 300
256 261 62 65 59 70 90 113 82 98 135 150 158 174 175 150 166 168 176 182 165 165 158 141 135 118 99 124 148 158 150 150 150 147 149 147 149 153 154 159 157 168 169 169 178 168 167 167 171 190 198 200 208 216 217 227 237 235 246 259 264 274 282 283 284 286 287 286 287 285 285 291 293 299 309 317 329 332 326 318 310 308 307 305 308 309 308 307 305 303 300 299 297 296 298 300 302
296 24 61 57 51 68 62 74 84 107 140 150 161 175 180 158 166 173 181 181 175 176 169 164 153 139 126 138 149 154 153 152 151 153 157 154 158 159 158 164 164 169 168 171 184 176 174 178 183 199 206 212 219 220 219 233 244 244 254 264 271 280 282 282 284 287 288 289 290 288 293 302 320 1 6 354 347 337 325 314 306 306 306 307 309 308 307 305 303 301 298 298 300 303 309 311 308
337 1 65 65 59 80 64 77 99 93 133 150 160 170 180 161 164 177 187 181 184 199 183 178 176 161 147 150 155 156 157 158 157 160 163 161 161 160 162 168 171 172 166 171 185 180 182 188 187 199 211 216 218 223 235 244 249 253 260 269 277 285 288 287 290 295 297 308 322 343 37 69 68 43 20 359 344 331 320 312 312 312 312 312 310 313 314 310 312 312 309 312 317 318 319 315 310
360 12 65 73 66 88 82 94 111 122 141 151 153 165 182 168 174 188 193 192 189 203 196 188 185 169 158 157 161 162 162 163 163 165 168 168 162 160 165 166 173 177 170 176 189 187 189 192 193 206 213 214 220 227 242 251 252 259 261 268 279 290 302 303 308 334 35 74 79 83 78 72 59 33 11 355 336 321 317 320 323 320 320 317 314 319 317 313 319 322 319 322 324 320 317 311 306
41 56 66 70 54 80 101 111 118 136 143 149 155 168 174 167 190 202 204 211 133 161 186 182 179 170 164 164 167 167 168 169 169 171 172 173 171 170 173 169 176 182 178 181 192 203 207 203 207 216 216 220 235 239 247 255 255 265 263 265 281 297 337 20 76 87 94 92 83 76 67 53 39 20 6 353 337 329 325 326 323 318 319 315 314 318 314 313 321 323 319 321 320 317 315 310 309
36 81 76 63 57 83 112 122 130 142 149 157 161 163 164 171 194 203 214 223 82 81 159 169 168 169 169 171 171 172 174 175 174 177 176 177 179 182 184 180 183 185 182 188 199 217 229 228 229 226 222 232 247 244 247 260 267 268 258 246 245 143 106 102 100 97 91 82 74 67 58 44 31 13 3 354 345 337 326 321 317 313 313 311 311 313 312 315 322 322 321 323 322 322 320 317 316
8 85 96 80 74 94 112 124 138 148 153 151 158 166 176 187 188 187 212 218 147 108 134 166 169 166 171 174 177 178 179 180 181 182 180 181 184 186 189 187 188 187 185 194 201 217 241 246 243 235 230 236 243 239 240 246 255 253 187 169 155 129 114 108 102 95 82 75 70 64 61 46 28 8 357 348 337 327 317 314 310 308 308 307 308 313 314 317 323 324 324 327 328 328 329 326 319
39 80 109 114 103 108 115 128 139 146 144 138 174 187 187 194 204 210 211 205 180 160 139 170 176 171 175 178 182 184 184 185 185 185 184 185 187 188 193 195 196 189 185 196 204 222 243 244 240 239 234 236 240 235 224 210 204 185 147 147 138 123 115 108 101 93 83 75 68 60 56 40 21 0 346 336 322 314 309 307 306 304 306 307 309 314 316 321 328 325 325 333 334 332 332 325 320
104 98 123 134 124 126 132 138 144 151 150 157 192 204 210 208 264 239 206 193 177 172 166 169 175 177 179 180 185 188 188 190 187 185 185 184 187 191 197 202 203 193 185 189 208 231 240 237 231 231 230 228 223 204 192 181 170 160 148 143 132 121 115 109 105 99 84 69 56 45 39 26 13 352 335 325 315 312 310 309 308 307 308 308 311 316 318 326 331 328 333 341 338 332 331 323 322
122 131 120 129 131 142 153 150 153 161 156 174 200 212 220 214 250 227 171 172 171 168 171 168 174 180 181 181 184 188 190 193 189 185 186 185 189 196 202 207 207 199 187 179 199 231 235 225 219 220 213 199 189 176 174 173 159 151 150 144 132 125 122 116 109 94 75 56 44 36 31 16 360 342 329 324 320 318 314 312 310 309 309 311 315 319 323 334 339 338 341 347 344 336 333 326 325
136 143 127 136 151 159 176 176 168 180 169 178 205 232 227 213 237 239 152 158 167 168 169 168 176 178 179 180 180 186 191 194 192 189 191 192 193 197 203 208 208 203 191 177 190 230 238 215 203 206 186 173 178 172 170 170 155 152 152 143 133 128 122 112 97 79 63 50 44 34 21 5 350 340 336 335 332 328 322 318 316 314 314 315 319 327 337 348 348 343 343 348 347 341 338 331 330
154 169 154 146 175 188 191 195 184 205 184 170 203 241 222 211 222 218 159 161 165 168 168 169 178 175 177 178 178 185 188 192 194 195 198 197 196 198 201 205 207 206 193 180 184 213 237 213 188 195 180 166 171 174 169 160 152 153 148 138 134 127 114 101 85 70 58 48 40 24 10 1 355 352 348 349 345 340 336 331 330 330 327 329 335 344 354 354 348 344 344 348 347 344 343 334 339
177 198 231 165 195 196 185 195 193 212 180 163 213 280 177 196 205 181 155 169 170 170 171 172 177 174 176 179 181 187 188 192 195 198 200 199 200 199 199 203 206 205 197 189 183 189 209 203 185 193 183 165 164 166 160 151 149 149 144 140 137 123 107 93 79 66 58 46 29 16 11 11 5 1 358 359 356 349 344 341 345 342 341 355 354 355 2 351 347 346 344 354 356 348 345 338 345
194 200 238 216 256 147 165 185 191 200 167 168 219 297 38 158 179 170 159 173 176 177 176 175 178 176 179 182 185 189 190 194 196 199 202 200 202 200 200 203 199 203 204 195 188 185 183 181 185 184 178 168 158 154 153 150 145 145 148 146 136 118 106 93 78 66 58 40 22 18 21 20 10 8 9 8 5 360 355 352 357 353 359 19 358 351 2 349 346 346 343 359 8 351 349 346 342
211 234 223 210 302 132 164 184 194 201 171 179 211 274 298 123 154 166 163 172 183 188 183 178 181 179 183 185 188 191 191 195 197 199 202 199 201 199 199 200 194 202 208 198 197 191 172 174 183 174 173 166 153 153 155 153 148 149 153 144 128 116 107 95 79 68 57 31 20 21 22 21 13 13 13 11 10 8 8 6 5 7 15 18 350 349 359 348 345 345 346 360 13 4 358 351 332
200 249 277 298 281 240 159 177 200 211 186 191 212 261 297 110 151 169 166 174 186 195 191 184 184 183 187 190 190 193 192 195 197 199 200 198 199 197 195 195 191 198 205 204 197 177 164 170 174 169 173 160 154 160 159 159 155 154 155 144 130 118 105 89 78 69 48 25 18 17 16 16 14 15 13 10 11 11 19 24 14 19 23 359 348 354 353 347 348 347 349 358 13 15 360 348 330
200 231 276 275 275 295 182 174 197 207 206 211 218 242 267 216 156 169 172 180 187 197 198 188 187 187 190 194 194 195 194 196 198 199 197 194 196 193 190 192 190 195 199 195 180 165 159 163 169 173 173 161 163 166 161 162 160 161 163 155 141 123 112 105 96 71 37 20 14 13 12 12 12 13 11 9 11 13 21 31 21 19 14 348 350 359 353 347 349 347 349 357 12 18 1 350 328
290 285 290 265 245 248 257 153 166 193 215 235 232 239 256 245 185 179 179 184 191 199 201 193 192 191 192 196 198 197 198 201 200 198 195 191 190 187 185 188 187 189 187 174 164 158 157 168 178 174 166 169 173 167 161 162 163 169 172 162 154 141 136 143 121 69 27 13 7 8 9 10 10 9 9 10 14 21 25 23 12 7 1 350 354 7 1 349 349 346 346 2 19 11 359 357 324
301 300 296 292 278 245 286 51 142 189 229 242 251 258 268 268 222 194 184 186 193 198 199 197 197 194 194 198 199 200 201 203 200 195 191 186 184 181 180 183 181 178 171 161 157 160 167 179 179 169 169 179 177 165 162 165 167 174 175 171 170 162 163 173 150 43 11 4 360 4 7 7 7 6 8 12 17 25 34 18 4 7 2 354 359 8 2 354 357 354 349 13 34 14 356 357 328
287 287 278 280 284 266 299 29 137 192 260 265 270 277 282 287 269 202 186 187 193 197 198 197 199 198 197 199 200 201 202 202 199 192 187 181 179 177 176 178 174 170 166 160 160 171 182 186 177 173 178 181 175 167 166 172 179 178 172 173 176 175 185 195 213 332 355 354 355 2 5 4 4 6 8 14 20 27 33 12 1 12 7 359 4 6 5 11 22 17 11 27 36 28 8 345 324
270 275 274 271 273 271 293 349 120 187 263 289 296 292 287 287 285 213 185 190 198 201 201 197 199 199 197 201 201 200 201 200 196 189 183 178 176 173 174 177 173 170 174 171 175 187 190 186 179 175 175 174 173 171 170 179 189 179 169 174 178 177 173 172 224 312 341 348 355 1 0 0 2 3 7 16 25 31 36 19 4 8 8 6 11 11 15 31 45 38 38 46 34 27 26 357 163
263 263 270 267 270 280 282 300 133 192 257 302 308 300 293 287 285 230 190 198 209 208 208 203 200 199 198 200 200 198 197 196 193 186 181 177 174 173 175 176 174 175 180 181 190 197 193 190 183 172 171 175 177 178 177 183 187 176 174 183 182 174 177 190 228 306 333 346 353 356 354 355 360 4 11 22 24 24 34 29 7 358 8 21 28 33 28 32 45 45 47 66 57 32 28 25 63
253 253 262 260 262 275 269 134 134 209 259 303 310 297 291 287 292 251 204 208 219 214 213 210 203 202 200 200 198 196 194 192 190 184 181 178 173 175 178 178 177 178 185 193 197 197 194 194 188 178 177 180 181 184 183 181 180 176 178 190 189 179 189 217 258 316 333 346 350 349 345 348 359 10 22 32 19 12 21 27 17 4 21 42 43 50 46 31 40 45 45 62 74 56 35 31 35
249 249 256 264 266 272 280 294 303 259 240 248 295 292 291 301 312 269 208 208 221 216 213 213 207 205 202 200 198 196 194 191 188 184 182 178 174 178 182 183 179 178 193 202 197 195 197 194 188 185 184 184 184 186 184 182 184 187 188 189 190 187 196 219 249 321 334 342 342 337 337 346 1 13 25 39 19 11 22 34 43 37 45 62 60 57 53 35 35 48 49 51 62 64 48 34 33
252 245 247 260 269 275 281 289 294 280 251 183 269 294 304 319 310 282 176 195 218 210 210 212 206 202 200 199 196 194 194 191 188 186 182 177 174 179 186 187 182 187 203 203 192 195 203 196 188 186 186 185 185 186 186 187 194 201 196 182 182 189 191 195 205 297 323 328 327 327 336 351 3 10 17 32 33 32 46 56 65 65 62 67 64 56 50 34 31 47 59 54 53 65 62 46 36
257 255 256 256 263 269 274 281 279 280 286 161 219 287 295 300 305 308 157 200 218 206 213 215 206 202 200 199 196 191 189 188 187 185 181 177 175 180 187 187 186 196 205 198 191 197 204 200 192 187 186 183 183 185 187 192 201 202 198 189 176 173 179 196 229 286 304 311 316 325 340 351 1 11 15 31 47 54 62 69 75 77 73 68 62 55 53 44 39 48 60 62 60 66 68 58 46
257 270 289 264 259 263 266 274 270 275 292 246 209 265 290 288 301 315 224 234 234 216 214 215 210 207 205 201 198 193 187 184 183 182 180 178 179 185 189 187 189 201 204 196 196 200 202 202 196 190 187 182 184 187 189 198 205 201 204 204 172 158 183 216 260 291 297 306 313 331 347 350 358 16 36 49 58 65 70 75 81 80 74 68 64 60 59 57 55 57 59 60 60 59 60 59 51
259 267 293 280 273 275 272 271 270 276 284 267 242 241 283 283 281 241 234 256 282 255 228 221 213 208 207 206 201 196 189 184 184 183 180 180 184 191 193 188 189 199 202 201 199 198 200 199 193 191 189 187 190 190 193 201 203 203 213 211 178 168 189 215 254 282 294 305 314 336 350 358 8 27 57 68 71 75 72 70 74 75 72 70 67 61 59 57 57 60 61 63 62 54 50 54 50
266 271 268 270 267 269 266 264 272 275 268 272 272 248 256 281 285 258 239 263 300 290 273 242 216 206 205 206 204 198 189 184 186 184 179 180 187 194 194 190 191 196 200 203 201 195 196 195 190 189 191 192 194 194 198 201 199 205 217 209 189 185 188 207 249 280 294 305 322 342 356 21 45 55 63 66 73 79 75 68 66 67 68 70 66 59 54 52 52 55 56 60 63 57 49 50 48
258 262 249 243 239 242 251 256 268 270 259 268 276 264 257 275 284 281 273 291 302 293 292 260 204 199 199 203 203 197 188 183 183 180 176 177 185 193 193 189 191 195 197 201 202 197 196 194 189 188 193 197 197 198 200 200 201 209 215 204 194 192 194 214 254 280 288 304 329 348 1 53 102 101 77 66 70 82 83 75 67 61 59 61 65 64 61 57 55 54 52 51 55 55 49 47 45
238 241 244 244 233 224 242 239 235 259 262 266 274 264 257 262 275 287 292 296 299 301 297 285 208 192 191 198 200 194 188 183 178 174 171 171 178 186 188 186 186 190 195 199 200 199 197 193 190 192 197 200 201 202 200 201 208 212 207 195 190 192 203 220 246 266 281 294 270 286 321 100 117 109 91 80 75 80 83 76 66 59 54 56 61 63 64 65 59 54 52 47 47 48 46 44 42
227 229 231 237 234 224 239 237 229 253 260 255 249 251 255 267 281 285 287 289 298 333 324 310 308 206 189 193 195 189 185 182 176 171 169 170 174 179 182 183 185 188 193 195 196 199 198 193 193 197 198 201 203 201 199 205 213 215 202 187 183 193 206 214 231 251 260 227 212 292 324 133 128 112 99 93 83 76 76 73 67 63 61 60 60 56 57 62 60 52 50 46 43 43 43 43 39
211 222 222 227 236 234 239 240 241 254 254 223 203 244 261 270 285 289 292 309 354 10 347 342 340 211 191 190 188 183 181 180 175 169 168 171 175 179 183 184 186 186 187 190 194 200 199 193 195 199 199 202 202 200 201 207 211 207 193 180 179 195 206 208 212 221 217 197 178 158 151 142 132 127 127 122 110 95 84 77 68 63 61 56 57 52 46 52 56 52 50 46 42 41 42 44 40
210 221 228 230 238 243 249 251 251 260 257 169 170 230 273 284 311 310 293 339 19 3 6 25 57 168 179 179 177 177 178 176 172 169 170 173 175 181 185 184 185 185 184 188 195 199 198 194 195 197 198 201 202 202 205 205 201 189 181 179 186 198 200 197 206 220 217 186 165 164 160 148 146 147 140 129 116 102 90 80 69 65 65 59 62 61 45 48 52 49 50 49 40 39 43 43 40
218 212 227 235 238 241 256 272 288 300 296 241 202 247 282 286 296 294 256 230 23 29 41 66 92 134 156 165 170 175 175 171 169 171 173 174 177 181 185 185 184 184 187 193 196 197 197 194 190 190 197 202 203 207 209 204 197 186 177 179 193 200 198 200 219 232 207 176 169 168 159 150 153 145 126 116 109 103 90 78 70 69 68 63 64 65 57 56 55 49 53 52 41 40 43 41 39
200 202 222 231 244 253 257 257 269 285 280 269 251 265 274 271 283 288 144 155 79 70 61 82 100 132 153 162 171 171 168 166 167 169 171 174 178 180 184 186 183 184 191 196 196 195 195 190 185 187 196 200 200 207 211 205 195 186 177 181 195 199 198 207 215 185 170 182 175 160 154 149 144 132 121 117 113 112 105 94 86 76 72 67 62 60 60 62 60 53 53 53 50 50 45 41 40
218 208 207 183 214 254 265 260 241 243 257 257 245 270 286 290 302 80 137 148 85 78 66 87 117 149 156 156 161 161 160 161 161 166 170 175 177 179 183 186 184 187 193 194 191 189 187 183 183 192 200 200 199 206 211 201 190 185 180 184 193 192 190 196 186 164 170 181 166 158 158 150 145 140 133 124 115 110 105 103 97 82 73 68 62 59 61 66 65 55 48 49 55 55 47 38 36
243 294 288 191 221 225 216 241 252 249 260 263 243 269 282 277 297 321 345 20 39 58 72 101 136 151 146 142 147 150 154 155 158 166 171 175 176 177 183 186 184 184 185 183 182 179 178 179 183 192 200 201 198 200 201 191 182 181 183 187 190 188 190 193 179 168 170 164 160 163 159 150 146 141 132 123 119 119 108 99 92 80 70 65 60 57 61 67 73 68 57 52 53 52 47 41 36
232 270 263 229 257 264 208 212 243 257 268 273 273 276 275 285 352 339 349 16 19 26 63 101 128 137 139 141 146 149 154 158 164 168 170 175 175 176 184 186 182 177 172 173 175 174 177 184 187 191 193 192 189 188 188 183 178 182 189 189 189 194 199 193 173 163 160 158 161 160 151 148 147 139 130 127 133 140 125 108 100 92 85 79 73 62 60 65 71 76 69 56 54 52 47 42 37
205 226 228 218 222 264 267 223 235 266 276 280 286 281 290 37 34 1 9 18 11 17 45 112 125 133 139 143 146 152 159 165 168 169 169 173 173 176 186 187 179 173 172 171 171 174 182 187 190 191 186 180 181 183 183 182 182 187 191 189 192 200 197 177 160 155 155 156 158 154 148 150 148 137 127 124 126 127 121 112 108 104 94 86 82 72 59 56 59 64 60 47 45 46 41 36 32
219 212 215 220 212 220 242 227 219 245 267 279 288 286 305 64 38 8 21 3 4 29 67 123 127 134 138 140 145 154 163 167 169 170 170 171 172 177 184 183 176 174 175 173 174 180 185 185 185 183 177 174 180 182 180 181 183 186 188 189 195 196 181 162 155 154 151 151 151 148 143 141 136 126 118 115 116 116 116 113 107 102 96 82 77 77 71 64 61 59 58 45 35 36 34 30 26